User: anonymous
Location: Cluny
(50.9333°N, 112.8167°W)
Time: 16:11:15
(UTC-06:00)
Language:

Hamsat - Orbit

View from above orbital plane
View from above orbital plane
View from above satellite
View from above satellite

Ground track
Ground track

The orbit data is extracted from the following two-line orbital elements,

1 28650U 05017B   14204.45905724  .00000470  00000-0  59904-4 0  7980
2 28650 097.5604 207.6141 0025716 041.9728 318.3453 14.85596240498616
Epoch (UTC): 23 July 2014 11:01:02
Eccentricity: 0.0025716
inclination: 97.5604°
perigee height: 594 km
apogee height: 629 km
right ascension of ascending node: 207.6141°
argument of perigee: 41.9728°
revolutions per day: 14.85596240
mean anomaly at epoch: 318.3453°
orbit number at epoch: 49861

The dashed part of the orbit path shows where the satellite is in the earth's shadow,  

DLR